Regional Weather Roundup
Issued by NWS Newport/Morehead, NC

Current Version | Previous Version | Graphics & Text | Print | Product List | Glossary Off
Versions: 1 2 3 4 5 6 7 8 9 10 11 12 13 14 15 16 17 18 19 20 21 22 23 24 25 26 27 28 29 30 31 32 33 34 35 36 37 38 39 40 41 42 43 44 45 46 47 48 49 50

000
ASUS42 KMHX 250912
RWRMHX
WEATHER ROUNDUP FOR EASTERN NORTH CAROLINA
NATIONAL WEATHER SERVICE NEWPORT/MOREHEAD CITY NC
500 AM EDT SAT APR 25 2015

NOTE: "FAIR" INDICATES FEW OR NO CLOUDS BELOW 12,000 FEET
WITH NO SIGNIFICANT WEATHER AND/OR OBSTRUCTIONS TO VISIBILITY

NCZ015>017-031-032-045>047-102-103-251000-
NORTH COAST

CITY           SKY/WX    TMP DP  RH WIND       PRES   REMARKS
EDENTON        PTCLDY    47  40  77 N3        29.93F
ELIZABETH CITY PTCLDY    50  44  80 E8        29.93F
KITTY HAWK     MOSUNNY   50  44  81 E3        29.92F
MANTEO         PTCLDY    47  45  90 NE3       29.93F

$$

NCZ045>047-081-094-103-104-251000-
CENTRAL COAST

CITY           SKY/WX    TMP DP  RH WIND       PRES   REMARKS
FRISCO         CLEAR     55  45  68 W9        29.93S
SWANQUARTER      N/A     57 N/A N/A W8G15     29.88S

$$

NCZ095-097-098-100-101-251000-
SOUTHERN COAST

CITY           SKY/WX    TMP DP  RH WIND       PRES   REMARKS
BEAUFORT       CLEAR     55  52  89 CALM      29.94F
CEDAR ISLAND     N/A     57 N/A N/A SW7G14    29.97S
JACKSONVILLE   PTCLDY    51  46  83 SW6       29.94F
PINEY ISLAND   SUNNY    N/A N/A N/A SW9       29.93F
WILMINGTON     CLEAR     51  47  86 CALM      29.94F


$$

NCZ011>013-027>030-043-044-078>080-089-090>093-098-251000-
COASTAL PLAIN

CITY           SKY/WX    TMP DP  RH WIND       PRES   REMARKS
AHOSKIE        PTCLDY    41  38  89 CALM      29.93F
CLINTON        PTCLDY    50  46  84 CALM      29.92F
ELIZABETHTOWN  MOCLDY    54  45  72 CALM      29.92F
GOLDSBORO      PTCLDY    52  45  75 S1        29.90F
GREENVILLE     PTCLDY    50  41  71 CALM      29.93F
HAVELOCK       CLEAR     47  42  83 CALM      29.94F
KENANSVILLE    PTCLDY    47  44  90 CALM      29.94F
KINSTON        PTCLDY    49  44  81 SW6       29.93F
NEW BERN       PTCLDY    50  43  77 SW6       29.95F
RICHLANDS      PTCLDY    45  39  81 CALM      29.95S
ROCKY MOUNT    CLEAR     45  41  86 S3        29.92F
WASHINGTON     PTCLDY    50  42  73 SW3       29.93S
WHITEVILLE     MOCLDY    53  46  77 CALM      29.93F

$$

AMZ130-135-150-152-154-156-158-170-250-252-270-ANZ085-086-088-633-658-670-251000-
MARINE OBSERVATIONS

STATION/POSITION TIME  TEMP    WIND        PRES    WAVE   SWELL
                       AIR SEA DIR/SP/G            HT/PER HT/PER
                 (UTC) (F)     (DEG/KT/KT) (MB)    (FT/S) (FT/S)
CHESAPEAKE LIGHT 0900   54     200/  6/  7 1014.1
64 E VA BEACH    0850   57 62  230/  8/  8 1013.3    2/14   2/14
DUCK             0800   53 55   80/  9/ 10 1012.8
2 E DUCK         0811      54                N/A     2/13   2/13
10 NE DUCK       NOT AVBL
OREGON INLET     0800   51 61   60/  2/  4 1013.5
HATTERAS CG      0800   60 65  240/  6/  9 1012.9
DIAMOND BUOY     0850   65 71  250/ 14/ 17 1013.4    4/10   3/10
CAPE LOOKOUT     0900   61     260/  7/  9 1013.5
BEAUFORT LAB     0800   60 64  260/  2/  6 1013.1
27 SE WRIGHTSVLE 0800   63 71  250/ 12/ 16   N/A
5 SE WRIGHTSVLE  0808   64 65  240/ 10/ 12 1013.8
225 S CAPE HAT   0850   63 70  150/  2/  4 1015.8    6/ 8   7/ 8
41 SE CHARLESTON 0850   70 72  150/ 10/ 12 1013.0    3/ 8   2/ 8

$$



USA.gov is the U.S. government's official web portal to all federal, state and local government web resources and services.